• In Uzbekistan
  • List of Countries
  • For 7 days
  • Water Temperature
  • Satellite Maps
  • Weather Map
  • Weather Widgets
  • user-avatar
    Login

    Hourly Weather Urganch

    Today, 23 February, Saturday

    Time Temperature Precipitation Wind Pressure Humidity
    00:00 +6°C° 0 mm 1 mps 756 mmHg 50%
    01:00 +4°C° 0 mm 2 mps 755 mmHg 51%
    02:00 +4°C° 0 mm 2 mps 755 mmHg 51%
    03:00 +4°C° 0 mm 2 mps 755 mmHg 51%
    04:00 +3°C° 0 mm 2 mps 755 mmHg 52%
    05:00 +3°C° 0 mm 2 mps 756 mmHg 52%
    06:00 +3°C° 0 mm 2 mps 756 mmHg 53%
    07:00 +4°C° 0 mm 1 mps 756 mmHg 53%
    08:00 +5°C° 0 mm 2 mps 756 mmHg 47%
    09:00 +7°C° 0 mm 2 mps 757 mmHg 41%
    10:00 +9°C° 0 mm 2 mps 757 mmHg 35%
    11:00 +10°C° 0 mm 2 mps 757 mmHg 32%
    12:00 +13°C° 0 mm 2 mps 757 mmHg 30%
    13:00 +14°C° 0 mm 2 mps 757 mmHg 27%
    14:00 +14°C° 0 mm 2 mps 757 mmHg 26%
    15:00 +14°C° 0 mm 2 mps 757 mmHg 25%
    16:00 +14°C° 0 mm 2 mps 757 mmHg 26%
    17:00 +13°C° 0 mm 2 mps 757 mmHg 29%
    18:00 +12°C° 0 mm 2 mps 757 mmHg 33%
    19:00 +10°C° 0 mm 2 mps 757 mmHg 37%
    20:00 +9°C° 0 mm 2 mps 757 mmHg 39%
    21:00 +8°C° 0 mm 2 mps 757 mmHg 40%
    22:00 +8°C° 0 mm 2 mps 757 mmHg 42%
    23:00 +7°C° 0 mm 2 mps 757 mmHg 44%

    Tomorrow, 24 February, Sunday

    Time Temperature Precipitation Wind Pressure Humidity
    00:00 +7°C° 0 mm 2 mps 757 mmHg 45%
    01:00 +6°C° 0 mm 2 mps 757 mmHg 46%
    02:00 +6°C° 0 mm 2 mps 757 mmHg 47%
    03:00 +5°C° 0 mm 2 mps 757 mmHg 49%
    04:00 +5°C° 0 mm 2 mps 757 mmHg 50%
    05:00 +4°C° 0 mm 2 mps 757 mmHg 52%
    06:00 +4°C° 0 mm 2 mps 758 mmHg 53%
    07:00 +4°C° 0 mm 2 mps 758 mmHg 55%
    08:00 +4°C° 0 mm 3 mps 758 mmHg 51%
    09:00 +7°C° 0 mm 3 mps 758 mmHg 46%
    10:00 +8°C° 0 mm 3 mps 758 mmHg 41%
    11:00 +9°C° 0 mm 2 mps 758 mmHg 38%
    12:00 +10°C° 0 mm 2 mps 758 mmHg 35%
    13:00 +12°C° 0 mm 1 mps 758 mmHg 33%
    14:00 +13°C° 0 mm 1 mps 758 mmHg 32%
    15:00 +13°C° 0 mm 1 mps 758 mmHg 32%
    16:00 +13°C° 0 mm 1 mps 757 mmHg 31%
    17:00 +12°C° 0 mm 1 mps 758 mmHg 34%
    18:00 +12°C° 0 mm 2 mps 758 mmHg 36%
    19:00 +10°C° 0 mm 3 mps 758 mmHg 38%
    20:00 +9°C° 0 mm 3 mps 758 mmHg 40%
    21:00 +8°C° 0 mm 3 mps 758 mmHg 42%
    22:00 +7°C° 0 mm 3 mps 758 mmHg 43%
    23:00 +7°C° 0 mm 3 mps 758 mmHg 45%

    Day after tomorrow, 25 February, Monday

    Time Temperature Precipitation Wind Pressure Humidity
    00:00 +5°C° 0 mm 3 mps 757 mmHg 47%
    01:00 +6°C° 0 mm 2 mps 757 mmHg 49%
    02:00 +6°C° 0 mm 2 mps 757 mmHg 50%
    03:00 +5°C° 0 mm 2 mps 757 mmHg 51%
    04:00 +6°C° 0 mm 1 mps 756 mmHg 53%
    05:00 +6°C° 0 mm 1 mps 756 mmHg 54%
    06:00 +5°C° 0 mm 1 mps 756 mmHg 55%
    07:00 +4°C° 0 mm 0 mps 756 mmHg 57%
    08:00 +7°C° 0 mm 1 mps 756 mmHg 52%
    09:00 +9°C° 0 mm 1 mps 756 mmHg 47%
    10:00 +11°C° 0 mm 1 mps 757 mmHg 41%
    11:00 +12°C° 0 mm 2 mps 756 mmHg 39%
    12:00 +12°C° 0 mm 4 mps 756 mmHg 37%
    13:00 +12°C° 0 mm 5 mps 756 mmHg 34%
    14:00 +12°C° 0 mm 5 mps 755 mmHg 34%
    15:00 +12°C° 0 mm 5 mps 755 mmHg 33%
    16:00 +11°C° 0 mm 6 mps 755 mmHg 33%
    17:00 +10°C° 0 mm 5 mps 755 mmHg 36%
    18:00 +10°C° 0 mm 4 mps 755 mmHg 39%
    19:00 +9°C° 0 mm 3 mps 755 mmHg 42%
    20:00 +8°C° 0 mm 3 mps 755 mmHg 44%
    21:00 +8°C° 0 mm 3 mps 755 mmHg 47%
    22:00 +7°C° 0 mm 3 mps 755 mmHg 49%
    23:00 +5°C° 0 mm 3 mps 755 mmHg 51%

    26 February, Tuesday

    Time Temperature Precipitation Wind Pressure Humidity
    00:00 +6°C° 0 mm 2 mps 755 mmHg 54%
    01:00 +5°C° 0 mm 2 mps 754 mmHg 56%
    02:00 +5°C° 0 mm 2 mps 754 mmHg 59%
    03:00 +5°C° 0 mm 2 mps 754 mmHg 61%
    04:00 +5°C° 0 mm 2 mps 754 mmHg 63%
    05:00 +3°C° 0 mm 3 mps 754 mmHg 65%
    06:00 +3°C° 0 mm 3 mps 754 mmHg 66%
    07:00 +3°C° 0 mm 3 mps 754 mmHg 68%
    08:00 +4°C° 0 mm 3 mps 754 mmHg 63%
    09:00 +7°C° 0 mm 3 mps 754 mmHg 57%
    10:00 +7°C° 0 mm 4 mps 754 mmHg 51%
    11:00 +8°C° 0 mm 4 mps 754 mmHg 48%
    12:00 +9°C° 0 mm 5 mps 753 mmHg 44%
    13:00 +10°C° 0 mm 5 mps 753 mmHg 41%
    14:00 +10°C° 0 mm 5 mps 753 mmHg 41%
    15:00 +10°C° 0 mm 5 mps 752 mmHg 42%
    16:00 +10°C° 0 mm 5 mps 752 mmHg 42%
    17:00 +10°C° 0 mm 4 mps 751 mmHg 44%
    18:00 +10°C° 0 mm 3 mps 751 mmHg 46%
    19:00 +9°C° 0 mm 2 mps 751 mmHg 48%
    20:00 +9°C° 0 mm 2 mps 751 mmHg 51%
    21:00 +9°C° 0 mm 1 mps 751 mmHg 53%
    22:00 +8°C° 0 mm 1 mps 751 mmHg 56%
    23:00 +7°C° 0 mm 2 mps 750 mmHg 57%

    27 February, Wednesday

    Time Temperature Precipitation Wind Pressure Humidity
    00:00 +7°C° 0 mm 2 mps 750 mmHg 58%
    01:00 +5°C° 0 mm 3 mps 749 mmHg 60%
    02:00 +5°C° 0 mm 3 mps 749 mmHg 60%
    03:00 +5°C° 0 mm 4 mps 748 mmHg 61%
    04:00 +5°C° 0 mm 4 mps 748 mmHg 61%
    05:00 +5°C° 0 mm 4 mps 747 mmHg 61%
    06:00 +5°C° 0 mm 4 mps 747 mmHg 61%
    07:00 +5°C° 0 mm 4 mps 747 mmHg 61%
    08:00 +7°C° 0 mm 5 mps 746 mmHg 54%
    09:00 +9°C° 0 mm 6 mps 746 mmHg 47%
    10:00 +11°C° 0 mm 7 mps 746 mmHg 40%
    11:00 +12°C° 0 mm 7 mps 745 mmHg 35%
    12:00 +15°C° 0 mm 7 mps 744 mmHg 31%
    13:00 +16°C° 0 mm 7 mps 743 mmHg 26%
    14:00 +16°C° 0 mm 7 mps 743 mmHg 26%
    15:00 +16°C° 0 mm 6 mps 742 mmHg 25%
    16:00 +16°C° 0 mm 6 mps 742 mmHg 25%
    17:00 +15°C° 0 mm 5 mps 741 mmHg 27%
    18:00 +14°C° 0 mm 4 mps 741 mmHg 29%
    19:00 +14°C° 0 mm 3 mps 741 mmHg 30%
    20:00 +13°C° 0 mm 3 mps 741 mmHg 31%
    21:00 +12°C° 0 mm 3 mps 741 mmHg 31%
    22:00 +12°C° 0 mm 4 mps 740 mmHg 31%
    23:00 +11°C° 0 mm 3 mps 740 mmHg 32%

    28 February, Thursday

    Time Temperature Precipitation Wind Pressure Humidity
    00:00 +11°C° 0 mm 3 mps 739 mmHg 32%
    01:00 +11°C° 0 mm 3 mps 739 mmHg 33%
    02:00 +10°C° 0 mm 2 mps 739 mmHg 35%
    03:00 +10°C° 0 mm 2 mps 739 mmHg 36%
    04:00 +10°C° 0 mm 2 mps 739 mmHg 38%
    05:00 +10°C° 0 mm 3 mps 739 mmHg 39%
    06:00 +10°C° 0 mm 3 mps 739 mmHg 40%
    07:00 +8°C° 0 mm 4 mps 739 mmHg 41%
    08:00 +9°C° 0 mm 5 mps 740 mmHg 43%
    09:00 +9°C° 0 mm 6 mps 740 mmHg 45%
    10:00 +10°C° 0 mm 7 mps 741 mmHg 48%
    11:00 +11°C° 0 mm 7 mps 741 mmHg 46%
    12:00 +11°C° 0 mm 7 mps 741 mmHg 45%
    13:00 +12°C° 0 mm 7 mps 741 mmHg 43%
    14:00 +13°C° 0 mm 6 mps 742 mmHg 44%
    15:00 +13°C° 0 mm 6 mps 742 mmHg 44%
    16:00 +13°C° 0 mm 5 mps 742 mmHg 45%
    17:00 +12°C° 0 mm 5 mps 743 mmHg 48%
    18:00 +11°C° 0 mm 4 mps 743 mmHg 51%
    19:00 +10°C° 0 mm 3 mps 744 mmHg 55%
    20:00 +9°C° 0 mm 3 mps 744 mmHg 57%
    21:00 +8°C° 0 mm 4 mps 744 mmHg 60%
    22:00 +7°C° 0 mm 4 mps 744 mmHg 62%
    23:00 +6°C° 0 mm 4 mps 744 mmHg 64%
    Show more